Other Public Products
Issued by NWS Grand Forks, ND

Home | Current Version | Previous Version | Text Only | Print | Product List | Glossary Off
Versions: 1 2 3 4 5 6 7 8 9 10 11 12 13 14 15 16 17 18 19 20 21 22 23 24 25 26 27 28 29 30 31 32 33 34 35 36 37 38 39 40 41 42 43 44 45 46 47 48 49 50

000
FPUS83 KFGF 300010
OPUFGF
PRAIRIE TO PINES WEATHER ROUNDUP
NATIONAL WEATHER SERVICE EASTERN NORTH DAKOTA/GRAND FORKS ND
700 PM CDT MON JUN 29 2015

 **SATELLITE DATA USED TO AUGMENT SKY COVER AT AUTOMATED STATIONS**
 *****  WEATHER ACROSS EASTERN NORTH DAKOTA  *****

CITY           SKY/WX    TMP DP  RH WIND       PRES   REMARKS
GRAND FORKS    CLOUDY    73  63  70 NW10      29.88R
6HR MIN TEMP:  73; 6HR MAX TEMP:  78;

GRAND FORKS AF SUNNY     73  63  71 N10       29.89S
GRAND CITY NWS   N/A     73 N/A N/A NW6         N/A
BUXTON         NOT AVBL
DEVILS LAKE    MOSUNNY   75  61  60 NE6       29.92F
6HR MIN TEMP:  73; 6HR MAX TEMP:  77;

FARGO          SUNNY     75  64  68 NW13      29.86S
6HR MIN TEMP:  75; 6HR MAX TEMP:  78;

WAHPETON ARPT  CLEAR     72  61  68 NW7       29.87R
$$

 *****  WEATHER ACROSS CENTRAL AND WESTERN NORTH DAKOTA  *****

CITY           SKY/WX    TMP DP  RH WIND       PRES   REMARKS
JAMESTOWN      PTSUNNY   78  65  63 NE6       29.91S
6HR MIN TEMP:  78; 6HR MAX TEMP:  82;

BISMARCK       SUNNY     90  57  32 W7        29.90F
6HR MIN TEMP:  87; 6HR MAX TEMP:  92;

MINOT          SUNNY     86  56  35 NW8       29.89S
6HR MIN TEMP:  85; 6HR MAX TEMP:  89;

MINOT AFB      SUNNY     90  56  31 N6        29.87F
6HR MIN TEMP:  89; 6HR MAX TEMP:  93;

GARRISON         N/A     86  57  37 SE6       29.90F
6HR MIN TEMP:  86; 6HR MAX TEMP:  90;

WILLISTON      MOSUNNY   92  58  31 NE18      29.92R HX  91
6HR MIN TEMP:  91; 6HR MAX TEMP:  99;

DICKINSON      SUNNY     90  61  37 W7        29.90F HX  90
6HR MIN TEMP:  86; 6HR MAX TEMP:  92;

HETTINGER      SUNNY     87  65  47 SW5       29.96F
6HR MIN TEMP:  85; 6HR MAX TEMP:  89;

$$

 *****  OTHER OBSERVATIONS NORTHEAST NORTH DAKOTA  *****

CITY           SKY/WX    TMP DP  RH WIND       PRES   REMARKS
WALHALLA       FAIR      73  66  78 MISG      29.92S
LANGDON        FAIR      70  63  78 NE6       29.95S
CAVALIER       FAIR      73  63  68 N7        29.90F
GRAFTON        FAIR      72  61  68 N9        29.90S
CANDO          FAIR      73  63  68 NE7       29.94S
FORT TOTTEN      N/A     78  64  61 NE2       29.95S
ROLLA          FAIR      72  61  68 E7        29.96F
RUGBY          NOT AVBL
 ***** THE ABOVE OBSERVATIONS ARE NON NWS ARE NOT QUALITY
        CONTROLLED AND MAY MIS-REPORT RAIN FOR SNOW...
$$

 *****  OTHER OBSERVATIONS SOUTHEAST NORTH DAKOTA *****

CITY           SKY/WX    TMP DP  RH WIND       PRES   REMARKS
COOPERSTOWN    NOT AVBL
VALLEY CITY    FAIR      75  66  73 N6        29.91S
OAKES            N/A     77  66  69 N9        29.90R
GWINNER        NOT AVBL
SHEYENNE NWR     N/A     77  63  61 N3        29.95
BUFFALO        NOT AVBL
WYNDMERE       NOT AVBL
 ***** THE ABOVE OBSERVATIONS ARE NON NWS ARE NOT QUALITY
       CONTROLLED AND MAY MIS-REPORT RAIN FOR SNOW...
$$

  *****  WEATHER ACROSS NORTHERN MINNESOTA  *****

CITY           SKY/WX    TMP DP  RH WIND       PRES   REMARKS
FLAG ISLAND    SUNNY     72  54  53 N9        29.87R
WARROAD        SUNNY     72  63  73 E8        29.88S
ROSEAU         SUNNY     75  63  64 N7        29.87S
HALLOCK        SUNNY     72  55  56 N13       29.88S
THF RVR FALLS  SUNNY     75  59  57 N14G20    29.87S
6HR MIN TEMP:  75; 6HR MAX TEMP:  79;

HALSTAD        NOT AVBL
FOSSTON        SUNNY     73  61  64 CALM      29.86S
BAUDETTE       SUNNY     71  56  58 N8        29.87R
6HR MIN TEMP:  70; 6HR MAX TEMP:  76;

WASKISH        SUNNY     73  61  64 N8        29.86R
CROOKSTON      SUNNY     73  63  68 N12       29.88R
$$
  *****  WEATHER ACROSS CENTRAL AND WEST MINNESOTA  *****

CITY           SKY/WX    TMP DP  RH WIND       PRES   REMARKS
BEMIDJI        PTSUNNY   75  56  53 N6        29.85R
PARK RAPIDS    SUNNY     78  56  46 N10       29.84R
6HR MIN TEMP:  78; 6HR MAX TEMP:  82;

WADENA         SUNNY     75  63  64 NW12      29.84R
DETROIT LAKES  SUNNY     73  64  73 NW10G18   29.88S
MOORHEAD       SUNNY     73  64  73 NW10      29.87S
FERGUS FALLS   SUNNY     73  64  73 NW12      29.85S
ELBOW LAKE     FAIR      73  66  79 NW9       29.86R
6HR MIN TEMP:  73; 6HR MAX TEMP:  76;

MORRIS MN      SUNNY     75  64  69 NW9       29.85R
STAPLES        MOSUNNY   77  61  57 N9        29.82R
WHEATON        SUNNY     72  63  73 NW9       29.88R
$$
  *****  WEATHER ELSEWHERE ACROSS MINNESOTA  *****

CITY           SKY/WX    TMP DP  RH WIND       PRES   REMARKS
DULUTH         MOSUNNY   74  58  57 N12       29.79R
6HR MIN TEMP:  68; 6HR MAX TEMP:  78;

INTRNTL FALLS  SUNNY     71  54  54 N8        29.84F
6HR MIN TEMP:  70; 6HR MAX TEMP:  76;

ELY            SUNNY     70  55  60 N5        29.82R
CLOQUET        SUNNY     73  57  56 N9        29.78S
BRAINERD       SUNNY     78  57  48 N13       29.81R
6HR MIN TEMP:  73; 6HR MAX TEMP:  84; 6HR PCP: TRACE;

HIBBING        MOSUNNY   73  57  57 N9        29.80S
6HR MIN TEMP:  73; 6HR MAX TEMP:  78;

ALEXANDRIA     SUNNY     75  64  68 NW8       29.86R
6HR MIN TEMP:  75; 6HR MAX TEMP:  77;

SAINT CLOUD    SUNNY     79  64  60 NW14      29.78F
6HR MIN TEMP:  79; 6HR MAX TEMP:  83;

MINNEAPOLIS    PTSUNNY   78  61  55 NE22G32   29.81R
6HR MIN TEMP:  76; 6HR MAX TEMP:  83; 6HR PCP: TRACE;

$$

  *****  WEATHER ACROSS SOUTH DAKOTA  *****

CITY           SKY/WX    TMP DP  RH WIND       PRES   REMARKS
SIOUX FALLS    SUNNY     81  62  52 W5        29.89F
6HR MIN TEMP:  81; 6HR MAX TEMP:  83;

BROOKINGS      SUNNY     81  63  54 NW6       29.90F
WATERTOWN      SUNNY     80  65  59 N6        29.89F
6HR MIN TEMP:  77; 6HR MAX TEMP:  82;

HURON          MOSUNNY   83  67  58 NW5       29.88F
6HR MIN TEMP:  81; 6HR MAX TEMP:  87;

SISSETON         N/A     78  63  59 N13       29.86S
ABERDEEN       MOSUNNY   86  63  45 NE9       29.88S HAZE
6HR MIN TEMP:  83; 6HR MAX TEMP:  90;

MITCHELL       SUNNY     85  62  46 CALM      29.90F
PIERRE         SUNNY     88  60  38 NW10      29.91F
6HR MIN TEMP:  85; 6HR MAX TEMP:  91;

MOBRIDGE       MOSUNNY   92  60  34 NE5       29.90F HX  91
RAPID CITY     SUNNY     85  61  44 S5        30.05S
6HR MIN TEMP:  84; 6HR MAX TEMP:  90;

$$

  *****  SOME WEATHER IN NEARBY STATES *****

CITY           SKY/WX    TMP DP  RH WIND       PRES   REMARKS
GLASGOW MT     PTSUNNY   91  49  23 NE15      29.93F
6HR MIN TEMP:  91; 6HR MAX TEMP:  98;

GREAT FALLS MT CLOUDY    94  49  21 NE12      30.00F HX  90
6HR MIN TEMP:  89; 6HR MAX TEMP:  97;

CHEYENNE WY    SUNNY     83  39  21 NE12      30.26S
6HR MIN TEMP:  78; 6HR MAX TEMP:  85;

SCOTTSBLUFF NE PTSUNNY   87  54  32 E13       30.08S
6HR MIN TEMP:  84; 6HR MAX TEMP:  93;

OMAHA NE       CLOUDY    83  63  50 NE6       29.90S
6HR MIN TEMP:  83; 6HR MAX TEMP:  87;

DES MOINES IA  CLOUDY    80  63  55 NW8       29.86S
6HR MIN TEMP:  80; 6HR MAX TEMP:  83;

DAVENPORT IA   MOSUNNY   75  67  76 N5        29.82R
6HR MIN TEMP:  73; 6HR MAX TEMP:  80; 6HR PCP: TRACE;

CHICAGO IL     PTSUNNY   70  63  78 CALM      29.79R
6HR MIN TEMP:  66; 6HR MAX TEMP:  75; 6HR PCP:  0.21;

EAU CLAIRE WI  CLOUDY    61  59  93 SW7       29.79R FOG
6HR MIN TEMP:  59; 6HR MAX TEMP:  79; 6HR PCP:  1.08;

LA CROSSE WI   TSTM      66  62  87 VRB6      29.82R
6HR MIN TEMP:  66; 6HR MAX TEMP:  83; 6HR PCP:  0.46;

$$

  *****  SOME NATIONAL WEATHER *****

CITY           SKY/WX    TMP DP  RH WIND       PRES   REMARKS



USA.gov is the U.S. government's official web portal to all federal, state and local government web resources and services.